{"data":{"norad_id":53757,"epoch":"2026-09-20T21:30:33.860736Z","epoch_age_seconds":115489,"freshness":"FRESH","line1":"1 53757U 22108A   26263.89622524  .00000187  00000+0  75588-4 0  9999","line2":"2 53757  53.5345  19.4663 0008185 233.2666 126.7558 14.61332689215525","mean_motion":14.61332689,"eccentricity":0.0008185,"inclination_deg":53.5345,"raan_deg":19.4663,"arg_perigee_deg":233.2666,"mean_anomaly_deg":126.7558,"bstar":7.5588e-5,"rev_number":21552,"period_min":98.540189433893,"perigee_km":683.08977894016,"apogee_km":694.65847615595,"semimajor_km":7067.0111275481,"source":"CELESTRAK","updated_at":"2026-09-21T09:00:09.187741Z"}}